This is the latest recevied weather packets stored in our database for station/object DL6SW-10. If no packets are shown the sender has not sent any weather packets the latest 1 day(s).
| Time | Temp. | Humidity | Pressure | Rain* | Wind** | Luminosity | Snow |
|---|---|---|---|---|---|---|---|
| 1777876468 | 19.44° C | 53% | 1017.3 hPa | - | - | - | - |
| 1777876441 | 19.44° C | 53% | 1017.3 hPa | - | - | - | - |
| 1777875544 | 18.89° C | 54% | 1017.7 hPa | - | - | - | - |
| 1777875540 | 18.89° C | 54% | 1017.7 hPa | - | - | - | - |
| 1777874694 | 17.78° C | 56% | 1017.4 hPa | - | - | - | - |
| 1777874639 | 17.78° C | 56% | 1017.4 hPa | - | - | - | - |
| 1777873755 | 16.67° C | 58% | 1017.4 hPa | - | - | - | - |
| 1777873735 | 16.67° C | 58% | 1017.4 hPa | - | - | - | - |
| 1777872839 | 16.67° C | 59% | 1017.3 hPa | - | - | - | - |
| 1777872833 | 16.67° C | 59% | 1017.3 hPa | - | - | - | - |
| 1777871938 | 15.56° C | 61% | 1017.7 hPa | - | - | - | - |
| 1777871933 | 15.56° C | 61% | 1017.7 hPa | - | - | - | - |
| 1777871116 | 14.44° C | 61% | 1017.9 hPa | - | - | - | - |
| 1777871032 | 14.44° C | 61% | 1017.9 hPa | - | - | - | - |
| 1777870136 | 13.89° C | 62% | 1017.5 hPa | - | - | - | - |
| 1777870130 | 13.89° C | 62% | 1017.5 hPa | - | - | - | - |
| 1777869234 | 13.33° C | 61% | 1017.3 hPa | - | - | - | - |
| 1777869230 | 13.33° C | 61% | 1017.3 hPa | - | - | - | - |
| 1777868338 | 13.33° C | 61% | 1017.1 hPa | - | - | - | - |
| 1777868328 | 13.33° C | 61% | 1017.1 hPa | - | - | - | - |
| 1777867463 | 13.33° C | 61% | 1017.1 hPa | - | - | - | - |
| 1777867426 | 13.33° C | 61% | 1017.1 hPa | - | - | - | - |
| 1777866529 | 13.33° C | 61% | 1017.7 hPa | - | - | - | - |
| 1777866526 | 13.33° C | 61% | 1017.7 hPa | - | - | - | - |
| 1777865634 | 13.89° C | 61% | 1017.6 hPa | - | - | - | - |
* Rain since midnight (hover to see other rain measurements)
** Current wind speed in m/s (hover to see current wind gust speed)